Regional Weather Roundup
Issued by NWS Sterling, VA

Home | Current Version | Previous Version | Text Only | Print | Product List | Glossary Off
Versions: 1 2 3 4 5 6 7 8 9 10 11 12 13 14 15 16 17 18 19 20 21 22 23 24 25 26 27 28 29 30 31 32 33 34 35 36 37 38 39 40 41 42 43 44 45 46 47 48 49 50

000
ASUS41 KLWX 291510
RWRLWX

REGIONAL WEATHER ROUNDUP
NATIONAL WEATHER SERVICE BALTIMORE MD/WASHINGTON DC
1100 AM EDT WED JUL 29 2015

Note: "FAIR" indicates few or no clouds below 12,000 feet
with no significant weather and/or obstructions to visibility.
 TC=TEMPERATURE CELSIUS

 * =Non NWS site. Station does not report precipitation (e.g. rain,
    snow, etc.), thunder, or fog.

DCZ001-MDZ009-015-VAZ040>042-051-053>054-291600-
WASHINGTON METRO

CITY           SKY/WX    TMP DP  RH WIND       PRES   REMARKS
WASHINGTON NAT PTSUNNY   86  76  71 S8        30.01S HX  96
DULLES         PTSUNNY   81  74  79 SW5       30.02R
ANDREWS AFB    MOSUNNY   84  74  70 S5        30.01S HX  91
FT BELVOIR     MOSUNNY   83  75  76 VRB6      30.01S HX  91
QUANTICO       PTSUNNY   82  75  79 S9        30.01F
COLLEGE PARK*  CLOUDY    84  73  70 S3        30.01R HX  91
LEESBURG*      PTSUNNY   82  77  83 S7        30.03S HX  91
MANASSAS*      PTSUNNY   82  77  83 CALM      30.02R HX  91
GAITHERSBURG*  CLOUDY    81  73  78 SW5       30.06S

$$

MDZ006>007-011-014-291600-
BALTIMORE METRO

CITY           SKY/WX    TMP DP  RH WIND       PRES   REMARKS
BWI AIRPORT    CLOUDY    83  72  69 CALM      30.01S
MD SCIENCE CTR   N/A     86  72  62 MISG      30.01S HX  92
MARTIN STATE   MOSUNNY   84  79  84 E3        30.03S HX  96
ANNAPOLIS      MOSUNNY   82  74  76 SE10      30.01S
FORT MEADE*    CLOUDY    81  72  74 CALM      30.04R

$$

MDZ012-015-019>023-291600-
MARYLAND EASTERN SHORE

CITY           SKY/WX    TMP DP  RH WIND       PRES   REMARKS
OCEAN CITY     MOSUNNY   85  75  72 VRB6      30.03S HX  93
SALISBURY      PTSUNNY   85  74  69 W6        30.02S HX  92
BAY BRIDGE AP*   N/A     82  72  69 SE7       30.02R HAZE
CAMBRIDGE*     SUNNY     82  70  65 SW7       30.02S
EASTON*        MOSUNNY   84  73  70 SW6       30.05S HX  91

$$

MDZ017>025-291600-
SOUTHERN MARYLAND

CITY           SKY/WX    TMP DP  RH WIND       PRES   REMARKS
PATUXENT RIVER PTSUNNY   83  72  69 SW9       30.02S
ST INIGOES     MOSUNNY   83  74  74 SW7       30.02S
LEONARDTOWN*   SUNNY     82  70  65 SW7       30.04R

$$

MDZ003>005-291600-
NORTH CENTRAL MARYLAND

CITY           SKY/WX    TMP DP  RH WIND       PRES   REMARKS
FREDERICK*     CLOUDY    77  73  88 CALM      30.06R FOG
HAGERSTOWN APT PTSUNNY   82  71  69 VRB7      30.03S
WESTMINSTER*   CLOUDY    81  75  83 S7        30.05R

$$

MDZ501>502-291600-
WESTERN MARYLAND

CITY           SKY/WX    TMP DP  RH WIND       PRES   REMARKS
OAKLAND*       MOSUNNY   75 N/A N/A S3        30.13R
CUMBERLAND*    CLOUDY    79  72  78 SE3       30.07S

$$

VAZ025>031-291600-
SHENANDOAH VALLEY

CITY           SKY/WX    TMP DP  RH WIND       PRES   REMARKS
WINCHESTER*    PTSUNNY   82  72  69 CALM      30.02S
FRONT ROYAL*   FAIR      79  72  78 CALM      30.01F
LURAY*         FAIR      86  73  66 SW5       30.02S HX  93
NEW MARKET*    PTSUNNY   80  73  77 W3        30.01S
STAUNTON*      CLOUDY    81  72  73 S3        30.07S
WAYNESBORO*    PTSUNNY   76  71  85 CALM      30.07S

$$

WVZ021-048>050-054>055-291600-
EASTERN WEST VIRGINIA PANHANDLE

CITY           SKY/WX    TMP DP  RH WIND       PRES   REMARKS
MARTINSBURG    CLOUDY    77  71  82 SE6       30.03R
PETERSBURG*    MOSUNNY  N/A N/A N/A CALM      30.04S

$$

VAZ036>039-050-291600-
CENTRAL FOOTHILLS

CITY           SKY/WX    TMP DP  RH WIND       PRES   REMARKS
CHARLOTTESVILL CLOUDY    78  73  84 S3        30.03S HAZE
CULPEPER*      PTSUNNY   79  74  85 CALM      30.02F
ORANGE*        CLOUDY    81  75  83 SE6       30.03F
GORDONSVILLE*  PTSUNNY   81  75  83 S6        30.02S
WARRENTON*     PTSUNNY   82  76  84 S6        30.02S

$$

VAZ055>057-291600-
NORTH AND CENTRAL PIEDMONT

CITY           SKY/WX    TMP DP  RH WIND       PRES   REMARKS
FREDERICKSBRG* PTSUNNY   84  79  83 S8        30.01S HX  96
STAFFORD*      PTSUNNY   81  73  76 S6        30.06R

$$

NCZ024-NYZ072-PAZ021-071-VAZ022-071-291600-
OTHER REGIONAL OBSERVATIONS

CITY           SKY/WX    TMP DP  RH WIND       PRES   REMARKS
NEW YORK CITY  SUNNY     89  65  44 NE5       30.01F HX  91
PHILADELPHIA   PTSUNNY   86  72  62 SW7       30.01S HX  92
PITTSBURGH     PTSUNNY   83  69  62 SE6       30.02S
ROANOKE        CLOUDY    79  71  76 W3        30.08R
RICHMOND       CLOUDY    82  74  76 SW12      30.04R
RALEIGH        PTSUNNY   81  71  71 SE3       30.06R

$$

ANZ530>537-291600-
MARINE OBSERVATIONS

STATION/POSITION TIME  TEMP    WIND        PRES
                       AIR SEA DIR/SP/G
                 (UTC) (F)     (DEG/KT/KT) (MB)
THOMAS PT LIGHT  NOT AVBL
BALT KEY BRIDGE  1400   80     120/  3/  4 1016.1F
COVE POINT       1400   81     250/  9/ 12 1016.9F
LEWISETTA        1400   80 83  250/  8/  9 1016.2F
SOLOMONS ISLAND  1400      82                N/A

$$




USA.gov is the U.S. government's official web portal to all federal, state and local government web resources and services.